Flag for Australia Weather past 2 weeks in Brisbane, Queensland, Australia

Now
66 °F

Passing clouds.


Feels Like: 66 °F
Forecast: 55 / 72 °F
Wind: 9 mph from Northeast

Location: Brisbane Airport M. O

Current Time: Jul 25, 2014 at 5:56:58 PM

Latest Report: Jul 25, 2014 at 5:00 PM


Visibility: N/A

Pressure: 30.24 "Hg

Humidity: 78%

Dew point: 59 °F

Location of BrisbaneLocation

Historic Weather in Brisbane — Graph

°F

Brisbane temperature yesterday

Maximum temperature yesterday: 70 °F (at 12:00 PM)
Minimum temperature yesterday: 52 °F (at 6:00 AM)
Average temperature yesterday: 60 °F

Past Weeks' High & Low Weather Summary

 TemperatureHumidityPressure
High72 °F (Jul 12, 2:00 PM)100% (Jul 16, 2:00 AM)30.36 "Hg (Jul 16, 2:00 AM)
Low39 °F (Jul 12, 5:30 AM)14% (Jul 12, 3:30 PM)29.86 "Hg (Jul 18, 2:00 PM)
Average58 °F61%30.12 "Hg
* Reported Jul 10 5:00 PM — Jul 25 5:00 PM, Brisbane, Weather by CustomWeather, © 2014

Note: Actual official high and low records may vary slightly from our data, if they occured in-between our weather recording intervals... More about our weather records

Advertising

Brisbane weather history for previous 24 hours

 ConditionsComfort  
Time TempWeatherWind HumidityBarometerVisibility
5:00 PM
Jul 25
66 °FPassing clouds.9 mph78%30.24 "HgN/A
4:00 PM68 °FScattered clouds.10 mph69%30.24 "HgN/A
3:30 PM70 °FScattered clouds.10 mph64%30.24 "HgN/A
3:00 PM70 °FScattered clouds.12 mph64%30.21 "HgN/A
2:30 PM70 °FScattered clouds.10 mph60%30.24 "HgN/A
2:00 PM72 °FPassing clouds.10 mph61%30.24 "HgN/A
1:30 PM72 °FPassing clouds.10 mph57%30.24 "HgN/A
1:00 PM72 °FPassing clouds.8 mph57%30.24 "HgN/A
12:30 PM70 °FPassing clouds.9 mph64%30.27 "HgN/A
12:00 PM70 °FPassing clouds.7 mph64%30.27 "HgN/A
11:00 AM70 °FPassing clouds.6 mph64%30.30 "HgN/A
10:00 AM68 °FPassing clouds.3 mph64%30.33 "HgN/A
9:30 AM64 °FPassing clouds.6 mph68%30.33 "HgN/A
9:00 AM63 °FPassing clouds.8 mph73%30.33 "HgN/A
8:30 AM59 °FPassing clouds.8 mph82%30.30 "HgN/A
8:00 AM57 °FPassing clouds.8 mph88%30.30 "HgN/A
7:30 AM55 °FPassing clouds.8 mph88%30.30 "HgN/A
7:00 AM52 °FPassing clouds.9 mph94%30.30 "HgN/A
6:30 AM54 °FPassing clouds.8 mph88%30.27 "HgN/A
6:00 AM52 °FPassing clouds.8 mph94%30.27 "HgN/A
5:30 AM52 °FClear.8 mph94%30.27 "Hg10 mi
5:00 AM52 °FClear.8 mph94%30.27 "Hg10 mi
4:30 AM54 °FClear.9 mph88%30.24 "Hg10 mi
4:00 AM50 °FClear.7 mph94%30.24 "Hg10 mi
3:30 AM54 °FPassing clouds.7 mph88%30.24 "HgN/A
3:00 AM52 °FPassing clouds.8 mph94%30.24 "HgN/A
2:30 AM52 °FPassing clouds.7 mph94%30.24 "HgN/A
2:00 AM52 °FFog.6 mph94%30.24 "HgN/A
1:30 AM52 °FPassing clouds.2 mph100%30.24 "HgN/A
1:00 AM54 °FFog.3 mph94%30.24 "HgN/A
12:30 AM54 °FPassing clouds.6 mph94%30.24 "HgN/A
12:00 AM54 °FPassing clouds.2 mph94%30.24 "HgN/A
11:30 PM
Jul 24
54 °FPassing clouds.No wind94%30.24 "HgN/A
11:00 PM54 °FFog.No wind94%30.24 "HgN/A
10:30 PM55 °FFog.No wind94%30.24 "HgN/A
10:00 PM57 °FFog.No wind94%30.24 "HgN/A
9:30 PM57 °FFog.No wind88%30.24 "HgN/A
9:00 PM57 °FFog.No wind94%30.24 "HgN/A
8:30 PM57 °FPassing clouds.2 mph94%30.24 "HgN/A
8:00 PM59 °FPassing clouds.No wind88%30.24 "HgN/A
7:30 PM59 °FPassing clouds.No wind88%30.21 "HgN/A
7:00 PM61 °FPassing clouds.No wind83%30.21 "HgN/A
6:00 PM63 °FClear.5 mph77%30.18 "Hg10 mi
5:00 PM66 °FPassing clouds.7 mph64%30.15 "HgN/A
Weather by CustomWeather, © 2014

See weather overviewHow to use our weather pages